GW2677 Weather Reports


time (UTC)temp
F
wind
direction
speed
knots
gust
knots
rain 1hr
in
rain 24hr
in
rain mn
in
humidity
%
barometer
mb
20260505083406 56 231 0.0 0.0 0.00 0.00 0.00 78 1011.6
20260505082901 56 231 0.0 0.0 0.00 0.00 0.00 77 1011.9
20260505082357 56 231 0.0 0.0 0.00 0.00 0.00 76 1011.8
20260505081854 57 231 0.0 0.0 0.00 0.00 0.00 75 1011.7
20260505081351 57 230 0.0 0.0 0.00 0.00 0.00 75 1011.7
20260505080848 57 225 0.0 0.9 0.00 0.00 0.00 74 1011.7
20260505080344 58 243 0.0 0.0 0.00 0.00 0.00 74 1011.8
20260505075839 58 242 0.0 0.9 0.00 0.00 0.00 73 1011.7
20260505075337 59 243 0.0 0.0 0.00 0.00 0.00 71 1011.7
20260505074834 59 243 0.0 0.0 0.00 0.00 0.00 70 1011.6
20260505074331 60 243 0.0 0.0 0.00 0.00 0.00 69 1011.7
20260505073828 60 235 0.9 0.9 0.00 0.00 0.00 69 1011.5
20260505073326 60 233 0.0 0.9 0.00 0.00 0.00 69 1011.6
20260505072823 60 234 0.0 0.9 0.00 0.00 0.00 68 1011.5
20260505072319 60 245 0.0 0.0 0.00 0.00 0.00 68 1011.4
20260505071815 60 246 0.0 0.9 0.00 0.00 0.00 68 1011.4
20260505071312 60 247 0.0 0.0 0.00 0.00 0.00 67 1011.3
20260505070810 60 247 0.0 0.0 0.00 0.00 0.00 67 1011.4
20260505070306 60 221 0.9 1.7 0.00 0.00 0.00 67 1011.6
20260505065801 60 235 0.0 0.0 0.00 0.00 0.00 68 1011.5
20260505065258 60 234 0.0 0.0 0.00 0.00 0.00 67 1011.4
20260505064755 60 235 0.0 0.0 0.00 0.00 0.00 66 1011.5
20260505064252 60 235 0.0 0.0 0.00 0.00 0.00 66 1011.4
20260505063750 60 248 0.0 0.0 0.00 0.00 0.00 66 1011.5
20260505063246 60 241 0.0 0.9 0.00 0.00 0.00 66 1011.5
20260505062743 60 238 0.0 2.6 0.00 0.00 0.00 66 1011.5
20260505062240 61 231 1.7 2.6 0.00 0.00 0.00 65 1011.7
20260505061737 61 241 0.9 4.3 0.00 0.00 0.00 65 1012.1
20260505061235 61 224 1.7 4.3 0.00 0.00 0.00 65 1011.8
20260505060732 61 225 2.6 2.6 0.00 0.00 0.00 65 1011.9
20260505060229 60 238 1.7 1.7 0.00 0.00 0.00 65 1011.8
20260505055724 60 242 2.6 2.6 0.00 0.00 0.00 65 1011.8
20260505055221 60 219 3.5 4.3 0.00 0.00 0.00 66 1011.5
20260505054718 60 237 0.0 2.6 0.00 0.00 0.00 66 1011.8
20260505054216 60 241 0.0 1.7 0.00 0.00 0.00 67 1011.8
20260505053714 59 237 0.0 0.9 0.00 0.00 0.00 67 1011.9
20260505053210 59 263 0.0 0.0 0.00 0.00 0.00 67 1011.7
20260505052707 58 266 0.0 0.0 0.00 0.00 0.00 69 1011.7
20260505052204 59 267 0.0 0.0 0.00 0.00 0.00 70 1011.7
20260505051701 59 267 0.0 0.9 0.00 0.00 0.00 70 1011.7
20260505051159 59 268 0.9 0.9 0.00 0.00 0.00 68 1011.9
20260505050657 60 236 0.9 0.9 0.00 0.00 0.00 65 1011.6
20260505050155 60 236 0.0 0.0 0.00 0.00 0.00 65 1011.6
20260505041625 58 262 0.0 0.0 0.00 0.00 0.00 66 1011.5
20260505041122 59 262 0.0 0.0 0.00 0.00 0.00 65 1011.3
20260505040619 59 262 0.0 0.0 0.00 0.00 0.00 65 1011.4
20260505040116 59 262 0.0 0.0 0.00 0.00 0.00 65 1011.6
20260505035613 59 262 0.0 0.0 0.00 0.00 0.00 64 1011.3
20260505035109 59 263 0.0 0.0 0.00 0.00 0.00 63 1011.5
20260505034606 60 263 0.0 0.0 0.00 0.00 0.00 63 1011.5
20260505034103 60 264 0.0 0.0 0.00 0.00 0.00 62 1011.5
20260505033559 60 254 0.0 0.0 0.00 0.00 0.00 62 1011.4
20260505033058 61 265 0.0 0.9 0.00 0.00 0.00 59 1011.4
20260505032555 62 250 0.0 0.0 0.00 0.00 0.00 59 1011.5
20260505032051 62 283 0.9 1.7 0.00 0.00 0.00 58 1011.5
20260505031549 62 303 1.7 2.6 0.00 0.00 0.00 58 1011.5
20260505031045 62 252 0.9 1.7 0.00 0.00 0.00 58 1011.4
20260505030542 62 250 1.7 5.2 0.00 0.00 0.00 57 1011.3
20260505030038 63 252 0.0 4.3 0.00 0.00 0.00 57 1011.1
20260505025534 63 234 0.9 2.6 0.00 0.00 0.00 57 1011.3
20260505025033 63 249 0.9 5.2 0.00 0.00 0.00 56 1011.2
20260505024530 63 241 1.7 7.0 0.00 0.00 0.00 57 1010.9
20260505024027 63 160 3.5 7.0 0.00 0.00 0.00 56 1011.0
20260505023524 63 231 2.6 4.3 0.00 0.00 0.00 56 1010.9
20260505023021 63 164 2.6 6.1 0.00 0.00 0.00 56 1010.9
20260505022519 63 233 0.9 4.3 0.00 0.00 0.00 56 1011.0
20260505022016 63 122 2.6 6.1 0.00 0.00 0.00 56 1010.9
20260505021512 63 249 0.9 5.2 0.00 0.00 0.00 56 1010.9
20260505021009 64 237 2.6 4.3 0.00 0.00 0.00 56 1011.3
20260505020503 63 247 2.6 7.0 0.00 0.00 0.00 55 1011.1
20260505020000 63 235 3.5 5.2 0.00 0.00 0.00 55 1011.0
20260505015458 63 223 4.3 6.1 0.00 0.00 0.00 56 1011.2
20260505014954 63 208 3.5 5.2 0.00 0.00 0.00 56 1011.1
20260505014451 63 227 2.6 6.1 0.00 0.00 0.00 56 1011.0
20260505013949 63 172 5.2 7.0 0.00 0.00 0.00 55 1010.9
20260505013445 63 225 2.6 4.3 0.00 0.00 0.00 56 1010.9
20260505012943 63 261 1.7 4.3 0.00 0.00 0.00 56 1011.4
20260505012441 64 245 0.9 7.8 0.00 0.00 0.00 56 1011.2
20260505011937 64 231 1.7 4.3 0.00 0.00 0.00 55 1011.3
20260505011433 64 223 1.7 5.2 0.00 0.00 0.00 55 1011.0
20260505010930 64 226 2.6 4.3 0.00 0.00 0.00 54 1011.0
20260505010426 64 260 0.9 4.3 0.00 0.00 0.00 55 1010.9
20260505005922 65 248 0.9 7.0 0.00 0.00 0.00 54 1010.6
20260505005419 65 177 3.5 5.2 0.00 0.00 0.00 53 1010.7
20260505004917 65 232 2.6 5.2 0.00 0.00 0.00 52 1010.8
20260505004413 66 257 1.7 4.3 0.00 0.00 0.00 52 1010.6
20260505003910 66 203 1.7 7.0 0.00 0.00 0.00 52 1010.7
20260505003407 66 262 2.6 7.0 0.00 0.00 0.00 52 1010.7
20260505002904 66 211 0.9 5.2 0.00 0.00 0.00 52 1010.6
20260505002400 66 172 2.6 4.3 0.00 0.00 0.00 51 1010.6
20260505001859 67 246 1.7 5.2 0.00 0.00 0.00 50 1010.5
20260505001355 67 221 4.3 6.1 0.00 0.00 0.00 49 1010.6
20260505000853 68 227 0.9 4.3 0.00 0.00 0.00 48 1010.4
20260505000351 69 235 0.9 4.3 0.00 0.00 0.00 47 1010.6
20260504235847 69 261 0.9 4.3 0.00 0.00 0.00 47 1010.3
20260504235344 70 200 2.6 7.0 0.00 0.00 0.00 45 1010.5
20260504234840 70 240 1.7 4.3 0.00 0.00 0.00 45 1010.4
20260504234338 71 225 4.3 9.6 0.00 0.00 0.00 43 1010.2
20260504233835 71 233 5.2 7.0 0.00 0.00 0.00 43 1010.5
20260504233330 71 242 5.2 7.8 0.00 0.00 0.00 42 1010.3
20260504232827 71 198 7.8 12.2 0.00 0.00 0.00 42 1010.3
20260504232324 72 253 6.1 8.7 0.00 0.00 0.00 42 1010.2
20260504231821 72 227 4.3 8.7 0.00 0.00 0.00 42 1010.3
20260504231318 72 249 4.3 9.6 0.00 0.00 0.00 42 1010.3
20260504230814 72 265 7.0 12.2 0.00 0.00 0.00 41 1010.3
20260504230312 72 276 3.5 8.7 0.00 0.00 0.00 42 1010.4
20260504225810 72 243 6.1 7.8 0.00 0.00 0.00 41 1010.3
20260504225306 72 277 6.1 12.2 0.00 0.00 0.00 41 1010.3
20260504224804 72 225 9.6 13.0 0.00 0.00 0.00 41 1010.4
20260504224301 72 235 6.1 13.9 0.00 0.00 0.00 40 1010.4
20260504223757 72 252 8.7 13.0 0.00 0.00 0.00 40 1010.3
20260504223253 73 223 7.8 13.9 0.00 0.00 0.00 41 1010.4
20260504222750 73 250 4.3 9.6 0.00 0.00 0.00 42 1010.5
20260504222246 73 275 7.8 9.6 0.00 0.00 0.00 40 1010.4
20260504221744 73 249 7.8 11.3 0.00 0.00 0.00 40 1010.4
20260504221241 73 258 7.8 15.6 0.00 0.00 0.00 40 1010.6
20260504220738 73 232 6.1 9.6 0.00 0.00 0.00 40 1010.5
20260504220235 73 204 5.2 9.6 0.00 0.00 0.00 41 1010.4
20260504215732 73 205 9.6 13.0 0.00 0.00 0.00 39 1010.4
20260504215229 74 244 7.8 9.6 0.00 0.00 0.00 39 1010.7
20260504214724 74 269 6.1 9.6 0.00 0.00 0.00 40 1010.5
20260504214216 73 243 7.8 13.0 0.00 0.00 0.00 39 1010.6
20260504213712 73 225 6.1 11.3 0.00 0.00 0.00 40 1010.7
20260504213209 73 243 7.8 13.9 0.00 0.00 0.00 40 1010.3
20260504212706 73 259 7.8 13.0 0.00 0.00 0.00 40 1010.5
20260504212203 73 199 7.0 9.6 0.00 0.00 0.00 41 1010.6
20260504211700 73 204 5.2 7.0 0.00 0.00 0.00 39 1010.4
20260504211156 73 216 5.2 9.6 0.00 0.00 0.00 41 1010.5
20260504210654 73 237 6.1 12.2 0.00 0.00 0.00 39 1010.5
20260504210150 73 238 7.8 8.7 0.00 0.00 0.00 41 1010.4
20260504205648 73 234 7.8 15.6 0.00 0.00 0.00 39 1010.4
20260504205145 73 230 7.0 13.9 0.00 0.00 0.00 41 1010.6
20260504204643 73 230 3.5 13.0 0.00 0.00 0.00 39 1010.5
20260504204142 72 281 7.0 9.6 0.00 0.00 0.00 40 1010.7
20260504203640 73 233 9.6 13.0 0.00 0.00 0.00 40 1010.7
20260504203137 73 258 9.6 15.6 0.00 0.00 0.00 40 1010.7
20260504202632 73 226 7.0 11.3 0.00 0.00 0.00 38 1010.6
20260504202129 73 249 5.2 9.6 0.00 0.00 0.00 39 1010.8
20260504201625 72 243 7.0 14.8 0.00 0.00 0.00 41 1010.9
20260504201124 73 210 7.8 8.7 0.00 0.00 0.00 39 1010.9
20260504200620 72 213 7.0 12.2 0.00 0.00 0.00 40 1010.9
20260504200117 72 257 7.0 12.2 0.00 0.00 0.00 42 1011.1
20260504195613 72 222 7.8 9.6 0.00 0.00 0.00 40 1011.2
20260504195109 72 230 6.1 13.0 0.00 0.00 0.00 40 1011.1
20260504194606 73 261 6.1 7.0 0.00 0.00 0.00 40 1011.5
20260504194102 72 224 7.0 9.6 0.00 0.00 0.00 40 1011.5
20260504193558 72 261 8.7 18.2 0.00 0.00 0.00 40 1011.6
20260504193057 72 238 2.6 15.6 0.00 0.00 0.00 41 1011.7
20260504192555 72 254 9.6 17.4 0.00 0.00 0.00 41 1011.7
20260504192052 71 227 4.3 13.9 0.00 0.00 0.00 42 1011.6
20260504191550 72 236 5.2 13.0 0.00 0.00 0.00 41 1012.1
20260504191046 71 254 8.7 11.3 0.00 0.00 0.00 40 1011.8
20260504190543 72 243 7.8 12.2 0.00 0.00 0.00 41 1012.1
20260504190039 72 237 7.8 8.7 0.00 0.00 0.00 43 1012.3
20260504185536 71 223 10.4 13.0 0.00 0.00 0.00 41 1012.3
20260504185033 71 244 8.7 15.6 0.00 0.00 0.00 43 1012.3
20260504184528 71 245 7.0 8.7 0.00 0.00 0.00 44 1012.1
20260504184023 71 222 7.8 11.3 0.00 0.00 0.00 40 1012.4
20260504183521 71 223 6.1 7.8 0.00 0.00 0.00 43 1012.4
20260504183019 71 223 4.3 12.2 0.00 0.00 0.00 41 1012.5
20260504182515 71 271 5.2 11.3 0.00 0.00 0.00 40 1012.5
20260504182013 71 233 5.2 8.7 0.00 0.00 0.00 42 1012.5
20260504181510 70 228 5.2 8.7 0.00 0.00 0.00 41 1012.8
20260504181009 70 240 8.7 12.2 0.00 0.00 0.00 43 1012.7
20260504180507 70 174 5.2 13.9 0.00 0.00 0.00 44 1012.8
20260504180005 70 236 7.0 13.0 0.00 0.00 0.00 42 1013.0
20260504175502 70 230 6.1 12.2 0.00 0.00 0.00 41 1013.0
20260504174959 69 330 6.1 11.3 0.00 0.00 0.00 42 1013.2
20260504174457 69 219 9.6 12.2 0.00 0.00 0.00 42 1013.1
20260504173954 70 204 6.1 9.6 0.00 0.00 0.00 43 1013.2
20260504173450 69 245 7.8 13.9 0.00 0.00 0.00 42 1013.1
20260504172948 69 219 7.8 11.3 0.00 0.00 0.00 41 1013.3
20260504172443 69 240 9.6 13.0 0.00 0.00 0.00 42 1013.4
20260504171940 68 230 2.6 7.8 0.00 0.00 0.00 46 1013.3
20260504171437 69 237 4.3 9.6 0.00 0.00 0.00 42 1013.7
20260504170934 68 212 7.8 8.7 0.00 0.00 0.00 41 1013.4
20260504170430 68 335 4.3 8.7 0.00 0.00 0.00 43 1013.6
20260504160349 66 246 9.6 13.0 0.00 0.00 0.00 42 1014.7
20260504150814 64 227 5.2 9.6 0.00 0.00 0.00 45 1015.1
20260504150311 64 297 5.2 8.7 0.00 0.00 0.00 45 1015.1
20260504141241 59 257 3.5 6.1 0.00 0.00 0.00 49 1015.6
20260504140737 59 240 4.3 7.0 0.00 0.00 0.00 49 1015.7
20260504140233 59 233 5.2 6.1 0.00 0.00 0.00 49 1015.7
20260504130702 55 251 2.6 2.6 0.00 0.00 0.00 54 1016.2
20260504130158 56 249 0.0 4.3 0.00 0.00 0.00 54 1016.1
20260504120122 51 253 0.0 0.0 0.00 0.00 0.00 56 1016.1
20260504110549 42 267 0.0 0.0 0.00 0.00 0.00 75 1016.2
20260504100511 39 267 0.0 0.0 0.00 0.00 0.00 80 1016.1